Location: Belleville-Villette
(48.8882°N, 2.3753°E)
Time: 15:29:51
(UTC+00:00)

Daily predictions for brighter satellites

Satellite Brightness Start Highest point End
(mag) Time Altitude Azimuth Time Altitude Azimuth Time Altitude Azimuth
SL-16 R/B 3.2 20:31:30 10° SW 20:37:03 55° NW 20:42:39 10° NNE
Cosmos 2173 Rocket 4.1 20:33:58 10° N 20:40:24 77° E 20:46:46 10° SSE
Cosmos 1025 Rocket 3.3 20:38:28 10° S 20:42:41 50° E 20:46:55 10° NNE
Cosmos 2016 Rocket 4.2 20:38:34 10° N 20:44:35 56° ENE 20:50:36 10° SSE
SPOT 3 Rocket 3.9 20:40:20 10° S 20:45:30 70° WSW 20:50:43 10° NNW
Cosmos 1953 2.5 20:41:52 10° NNW 20:45:56 78° W 20:49:59 10° S
Cosmos 1300 3.7 20:43:10 10° N 20:46:39 33° ENE 20:50:07 10° SE
Cosmos 968 Rocket 4.1 20:43:31 10° NNW 20:48:26 44° ENE 20:53:19 10° SE
Cosmos 1536 Rocket 4.4 20:45:43 10° SSE 20:49:43 34° E 20:53:44 10° NNE
FALCON 9 DEB 3.6 20:48:38 10° WSW 20:52:03 64° NNW 20:55:28 10° ENE
Cosmos 1340 3.2 20:48:35 10° SSE 20:52:07 40° E 20:55:41 10° NNE
Cosmos 1867 4.1 20:46:54 10° NNW 20:52:19 55° NE 20:57:42 10° ESE
Meteor 1-16 Rocket 4.4 20:48:06 10° NNW 20:53:32 69° W 20:58:48 10° S
Cosmos 1110 Rocket 4.1 20:52:04 10° SSW 20:57:15 86° WNW 21:02:31 10° NNE
FALCON 9 DEB 3.0 20:56:16 10° SW 20:59:19 51° SSE 21:02:22 10° ENE
Cosmos 1844 Rocket 3.4 20:54:00 10° NW 20:59:30 51° WSW 21:04:57 10° S
Cosmos 1725 Rocket 4.1 20:53:39 10° N 20:59:48 63° ENE 21:05:56 10° SSE
DNEPR-1 R/B 3.6 20:55:36 10° NW 20:59:50 77° SW 21:04:07 11° SSE
Cosmos 2278 Rocket 3.2 20:55:45 10° NNW 21:01:02 38° NE 21:06:19 10° ESE
CARTOSAT-1 3.6 20:57:12 10° SSE 21:01:30 76° ENE 21:05:50 10° N
Cosmos 2322 3.8 20:55:59 10° S 21:01:31 59° ESE 21:07:04 10° NE
COSMOS 2428 3.1 20:59:03 10° S 21:04:27 44° ESE 21:09:53 10° NE
ATLAS 3B R/B 2.6 21:03:09 10° SSW 21:09:38 68° SE 21:16:22 10° NE
Cosmos 1626 2.2 21:08:06 10° SSW 21:11:47 77° W 21:15:30 10° N
Cosmos 1975 Rocket 4.2 21:08:00 10° SSW 21:12:13 46° WNW 21:16:29 10° N
OPS 8737 4.5 21:09:15 10° SW 21:13:11 83° NW 21:16:16 10° NE
FALCON 9 DEB 2.7 21:10:07 10° WSW 21:13:13 84° SSE 21:16:19 10° ENE
Meteor 2-10 Rocket 4.1 21:09:36 10° N 21:14:24 41° ENE 21:18:34 13° SE
Cosmos 405 2.9 21:13:00 10° NNW 21:16:28 86° W 21:19:35 12° S
ATLAS CENTAUR R/B 4.4 21:13:48 11° SE 21:16:31 15° E 21:20:53 10° ENE
Cosmos 1459 Rocket 4.5 21:13:41 10° NNW 21:19:37 59° W 21:25:33 10° S
CZ-2C R/B 4.3 21:16:28 10° N 21:21:12 63° WNW 21:25:54 10° SSW
Cosmos 1943 Rocket 4.4 21:17:55 10° N 21:21:22 17° NE 21:24:49 10° ENE
Cosmos 1802 Rocket 4.3 21:16:21 10° NNW 21:22:35 69° W 21:28:54 10° S
FALCON 9 DEB 2.7 21:19:30 10° WSW 21:22:37 80° SSE 21:25:45 10° ENE
FALCON 9 DEB 2.8 21:21:02 10° WSW 21:24:09 87° NNW 21:27:16 10° ENE
Terra 1.9 21:24:33 14° SSE 21:28:39 72° ENE 21:33:25 10° N
ERS-1 Rocket 3.0 21:24:00 12° SSE 21:28:44 84° WSW 21:33:49 10° NNW
Resurs 01 Rocket 3.8 21:26:15 10° SW 21:29:36 21° W 21:32:58 10° NW
Geosat 4.0 21:27:07 14° SSE 21:31:27 82° WSW 21:36:31 10° NNW
Spot 2 Rocket 4.2 21:31:36 10° S 21:36:31 51° W 21:41:29 10° NNW
USA 215 4.4 21:32:13 10° ENE 21:36:52 20° ESE 21:39:58 15° SSE
NOSS 0 Rocket 4.4 21:32:57 10° S 21:38:44 43° ESE 21:44:35 10° NE
Cosmos 1726 Rocket 4.4 21:36:05 10° N 21:40:18 39° ENE 21:43:17 17° SE
Cosmos 1980 4.4 21:36:06 14° SSE 21:40:20 35° ESE 21:45:26 10° NE
SPOT 5 3.2 21:36:40 12° S 21:41:17 66° WSW 21:46:05 10° NNW
Cosmos 1346 Rocket 3.2 21:38:55 17° SSE 21:41:45 47° E 21:45:38 10° NNE
Cosmos 2058 Rocket 4.4 21:39:31 10° N 21:43:20 27° ENE 21:46:11 15° ESE
Cosmos 2219 Rocket 2.4 21:44:30 10° SW 21:50:11 75° WNW 21:55:54 10° NNE
SJ 16-02 3.7 21:48:22 10° NNE 21:50:59 15° NE 21:53:35 10° E
SL-4 R/B 2.2 21:48:02 10° SW 21:52:00 43° SSE 21:55:42 10° ENE
ATLAS CENTAUR R/B 3.3 21:49:55 10° WNW 21:53:22 23° WSW 21:56:38 11° SSW
Cosmos 2333 Rocket 2.8 21:50:22 10° SW 21:56:02 61° WNW 22:01:43 10° NNE
Cosmos 1606 Rocket 3.6 21:51:58 10° N 21:56:27 70° E 21:59:21 21° SSE
Iridium 2 4.5 21:54:38 22° SE 21:56:30 36° E 21:59:58 10° NNE
Cosmos 1503 Rocket 4.1 21:53:26 10° NNW 21:58:50 74° ENE 22:02:37 20° SSE
Meteor 2-5 Rocket 4.0 21:56:05 10° SSW 22:01:36 67° WNW 22:07:15 10° N
Lacrosse 5 rocket 2.9 21:58:59 10° W 22:02:21 34° NNW 22:05:40 10° NE
Cosmos 1892 Rocket 4.1 22:01:08 21° SSE 22:03:38 42° E 22:07:51 10° NNE
Cosmos 2233 Rocket 4.2 21:58:38 10° NNW 22:04:46 69° W 22:09:55 15° S
ARIANE 5 R/B 4.3 22:02:03 10° SSW 22:05:53 28° W 22:09:47 10° NW
Cosmos 1455 2.4 22:07:25 10° N 22:11:13 60° ENE 22:13:08 26° SSE
SL-16 R/B 3.6 22:09:43 17° SE 22:11:51 21° E 22:16:02 10° NE
USA 267 4.0 22:06:13 10° E 22:12:32 54° NNE 22:18:52 10° WNW
Cosmos 2237 Rocket 2.3 22:08:26 16° S 22:12:51 56° ESE 22:18:21 10° NE
Cosmos 1447 Rocket 4.5 22:09:36 14° S 22:15:07 87° W 22:21:20 10° N
Cosmos 2360 Rocket 4.5 22:11:15 10° W 22:15:54 26° NW 22:20:36 10° NNE
GEOS 3 Rocket 4.2 22:13:22 12° ESE 22:18:10 55° NE 22:23:23 10° NW
BREEZE-M DEB (TANK) 2.2 22:15:26 10° WSW 22:18:15 84° SSE 22:25:14 10° ENE
Cosmos 2369 Rocket 4.2 22:15:12 10° N 22:19:37 22° NE 22:24:02 10° E
ALOS 2 3.9 22:18:46 16° ESE 22:21:28 30° ENE 22:25:17 10° N
Cosmos 389 Rocket 3.2 22:19:47 10° NNW 22:23:05 43° W 22:24:52 23° SSW
Cosmos 2228 3.6 22:19:23 10° NNW 22:23:40 52° W 22:26:31 20° SSW
Cosmos 1607 4.1 22:19:47 10° NW 22:26:11 70° SW 22:30:17 23° SSE
Meteor 1-24 Rocket 4.4 22:24:11 10° SSW 22:29:23 49° WNW 22:34:47 10° N
Spot 4 4.1 22:27:55 24° SE 22:30:43 62° ENE 22:35:27 10° N
FALCON 9 DEB 4.1 22:32:03 10° W 22:35:05 45° NNW 22:38:07 10° ENE
Cosmos 1777 Rocket 4.1 22:37:40 10° NNW 22:42:59 74° ENE 22:46:06 25° SSE
Cosmos 2278 Rocket 2.9 22:39:52 10° NW 22:45:12 43° WSW 22:48:27 22° SSW
COSMOS 2428 4.1 22:43:30 10° WSW 22:48:50 38° NW 22:54:11 10° NNE
FALCON 9 DEB 4.4 22:46:05 10° WNW 22:49:01 38° N 22:51:57 10° ENE
Cosmos 2297 4.0 22:43:25 10° NNW 22:49:01 61° ENE 22:52:49 21° SE
BREEZE-M DEB (TANK) 2.9 22:47:26 10° WSW 22:56:00 55° SSE 22:58:59 10° E
Cosmos 1464 Rocket 4.1 22:49:45 10° NNW 22:56:07 76° W 23:00:09 24° S
Meteor 1-4 Rocket 2.6 22:54:03 10° N 22:57:30 63° ENE 22:58:33 40° SE
FALCON 9 DEB 4.4 22:55:32 10° WNW 22:58:29 39° N 23:01:28 10° ENE
FALCON 9 DEB 4.5 22:57:05 10° WNW 23:00:00 37° N 23:02:57 10° ENE
ATLAS 3B R/B 4.1 22:54:37 10° W 23:00:47 39° NNW 23:07:11 10° NE
NOSS 3-1 (C) 3.7 23:02:14 28° SSE 23:04:31 42° ESE 23:10:18 10° NE
Cosmos 1943 Rocket 2.4 23:00:45 10° NNW 23:06:15 65° ENE 23:09:46 22° SE
Terra 4.1 23:04:01 10° SW 23:06:56 16° W 23:09:50 10° NW
Meteor 1-21 Rocket 4.4 23:08:11 22° SSW 23:11:52 74° WNW 23:17:40 10° N
Cosmos 1812 Rocket 3.7 23:10:15 10° N 23:14:36 63° ENE 23:16:27 32° SSE
NOSS 2-3 (E) 4.2 23:14:29 32° SE 23:15:20 35° ESE 23:19:38 10° NE
Cosmos 1184 Rocket 4.2 23:13:57 21° WSW 23:15:28 32° WNW 23:18:26 10° N
Cosmos 1892 4.5 23:14:27 18° ESE 23:15:33 21° E 23:18:28 10° NE
Cosmos 1816 Rocket 4.4 23:12:53 26° S 23:16:29 82° E 23:22:39 10° N
COBE Rocket 4.0 23:14:22 30° S 23:16:50 69° W 23:21:44 10° NNW
NOSS 3-1 (A) 4.1 23:15:08 26° SE 23:16:50 31° ESE 23:22:06 10° NE
Cosmos 1441 Rocket 3.6 23:15:09 28° SW 23:16:54 55° WNW 23:20:40 10° N
Okean 1-7 Rocket 3.9 23:15:34 26° SSW 23:17:57 61° WNW 23:22:21 10° N
USA 215 3.2 23:14:12 10° ENE 23:20:43 66° SE 23:27:13 10° SW
Cosmos 2058 Rocket 4.2 23:17:22 10° NNW 23:21:23 34° W 23:23:27 22° SW
Cosmos 1408 4.3 23:27:00 20° ESE 23:27:56 22° E 23:30:48 10° NE
Cosmos 1869 4.5 23:25:08 10° N 23:28:56 35° ENE 23:30:46 23° ESE
BREEZE-M DEB (TANK) 4.2 23:25:00 10° W 23:28:58 87° N 23:43:43 10° E
SJ 16-02 1.3 23:25:46 10° NNW 23:30:10 81° WSW 23:31:53 37° SSE
SL-4 R/B 2.1 23:27:31 10° W 23:31:31 68° NNW 23:35:13 10° ENE
Cosmos 2034 Rocket 4.3 23:26:51 10° NNW 23:32:53 57° W 23:36:23 25° SSW
CZ-3B R/B 4.3 23:14:48 10° W 23:34:53 60° NNW 23:39:30 10° ENE
Cosmos 1703 4.5 23:33:41 21° SW 23:35:43 36° WNW 23:39:25 10° N
Cosmos 1825 4.2 23:35:53 15° ESE 23:37:04 17° E 23:39:33 10° NE
Nimbus 7 Rocket 4.4 23:35:53 10° NNE 23:41:59 79° ESE 23:45:25 28° S
Lacrosse 5 rocket 3.7 23:39:19 10° NW 23:42:12 22° N 23:45:04 10° NE
Cosmos 1825 Rocket 4.1 23:41:53 32° SSE 23:43:33 48° E 23:47:51 10° NNE
Lacrosse 4 Rocket 3.9 23:40:59 10° N 23:44:00 19° NE 23:46:57 10° E
GP-B 3.0 23:41:21 10° N 23:45:50 85° E 23:47:38 36° S
Elektron 1 4.3 23:44:45 10° WNW 23:47:27 40° WSW 23:47:27 40° WSW
